GEFSMA_500_meanwind_216.txt.gz
Wind_Speed
4 4 3 3 3 3 3 2 2 2 2 2 2 2 3 3 2 2 2 2 2 3 3 3 4 4 4 4 4 4 4 5 5 5 5 5 5 5 6 6 6 6 6
3 3 2 3 3 2 2 2 2 2 2 3 3 4 4 4 4 4 4 4 4 5 5 5 6 6 6 6 6 6 7 7 6 6 6 7 7 7 7 8 8 8 8
3 3 2 2 2 1 1 1 1 1 2 3 4 5 5 6 6 6 6 6 6 6 7 7 7 8 8 8 8 9 9 9 9 9 9 9 9 9 9 9 10 10 10
3 2 2 1 1 1 1 1 2 2 3 4 4 5 6 7 7 7 7 8 8 8 8 8 8 9 10 10 10 11 11 11 11 11 11 11 11 11 12 12 12 12 12
3 2 2 1 0 1 2 3 3 3 4 4 5 5 7 8 8 9 9 9 10 10 10 10 10 10 11 11 11 12 12 12 12 13 13 13 13 13 14 14 14 14 14
3 1 0 1 1 1 2 3 4 4 4 5 5 6 7 7 8 9 10 11 11 11 11 12 12 12 13 14 13 13 13 13 14 14 15 15 14 14 14 14 15 15 16
4 3 2 1 2 2 2 3 3 4 5 6 6 7 7 8 8 9 10 11 12 12 13 13 14 14 14 15 15 15 16 15 15 16 15 16 16 17 16 16 16 17 18
5 4 3 3 3 3 3 3 4 4 5 5 6 7 7 8 9 10 11 11 12 13 13 14 15 15 15 16 16 16 17 16 16 16 17 17 18 18 18 19 19 19 20
6 5 4 3 3 3 4 4 4 5 5 6 7 8 8 9 10 11 12 13 14 14 14 14 15 15 16 16 17 17 17 18 18 19 19 20 20 21 21 21 22 22 22
7 6 5 5 4 4 4 5 5 6 6 7 8 8 9 10 11 12 13 14 14 15 16 16 17 17 17 17 18 18 18 19 20 20 20 20 21 22 22 22 22 23 23
8 7 7 5 5 5 5 6 6 7 7 8 9 9 10 10 11 12 13 14 15 16 17 17 17 17 17 18 18 18 19 20 21 21 22 22 22 23 23 23 23 24 24
8 8 7 6 6 6 6 7 7 8 8 9 10 10 10 11 12 13 13 14 15 15 16 16 16 17 17 18 18 19 20 21 22 22 22 23 24 24 25 24 25 25 25
9 8 7 7 7 8 8 8 8 9 9 10 11 11 11 12 13 13 14 14 15 15 16 16 17 18 19 19 20 20 21 22 22 22 22 23 24 24 25 25 25 25 25
9 9 8 8 8 9 9 9 9 9 10 11 11 11 11 12 13 13 14 15 15 16 16 17 17 18 18 19 20 20 21 21 22 23 23 24 25 26 27 27 26 27 27
10 9 9 10 10 10 10 11 11 11 12 12 11 11 11 12 13 13 14 14 15 15 16 17 17 18 18 19 20 21 21 21 22 23 23 24 25 26 26 26 26 26 26
10 10 10 11 11 12 12 12 13 13 13 12 12 12 12 12 13 13 13 14 15 16 16 17 18 19 20 20 21 22 22 23 23 24 24 24 24 24 25 26 27 27 28
11 11 11 11 12 13 13 13 13 13 13 13 13 13 13 13 13 13 14 15 16 16 17 18 19 19 20 20 21 22 22 23 23 24 25 25 24 25 26 26 27 28 29
11 12 12 13 13 14 13 13 14 14 14 14 14 13 13 13 13 13 15 15 16 17 17 18 19 20 20 20 21 22 23 24 24 24 24 24 24 25 26 27 27 28 29
12 13 13 13 13 14 14 14 14 15 15 14 14 14 14 14 14 14 15 16 17 17 18 18 19 20 21 22 22 24 24 24 24 24 24 24 24 25 26 27 27 27 28
13 14 14 14 14 14 15 15 15 15 15 15 15 15 15 15 15 16 17 17 18 18 18 19 20 20 22 22 23 24 24 24 24 24 24 25 26 26 27 27 27 28 28
14 14 14 14 14 14 15 16 16 16 16 16 16 16 16 16 17 18 19 19 19 19 19 20 20 21 22 22 23 24 24 24 24 25 25 26 26 27 27 27 27 28 28
15 15 15 15 15 15 16 17 17 17 17 17 17 17 17 18 19 19 20 20 20 20 20 21 21 21 22 22 23 23 24 24 25 26 26 26 27 27 27 28 28 28 28
16 16 16 17 17 17 17 17 18 18 18 18 18 18 19 19 19 20 19 19 20 20 21 21 21 22 22 23 23 23 24 24 25 25 26 26 27 27 27 28 28 28 28
17 17 18 18 18 18 18 18 19 19 19 20 20 20 20 20 20 20 21 21 21 21 21 22 22 22 22 23 23 24 24 25 25 25 26 26 26 27 27 27 27 27 27
18 19 19 19 19 19 20 20 21 21 21 21 21 21 21 21 22 22 22 22 22 22 22 22 23 23 23 24 24 25 25 26 26 26 26 26 27 27 27 27 27 27 28
20 21 21 20 20 21 21 22 22 22 22 22 23 22 22 22 22 22 22 22 23 23 23 23 24 24 25 25 26 26 27 27 27 26 27 27 27 27 28 28 28 28 28

GEFSMA_500_meanwind_222.txt.gz
Wind_Speed
6 6 7 6 6 6 6 5 4 4 4 4 4 3 3 3 3 2 3 3 4 4 4 4 4 4 5 5 5 6 6 7 6 7 7 7 7 7 8 8 8 8 8
4 5 5 5 5 4 4 4 3 3 3 3 3 4 4 4 4 4 4 5 5 5 5 6 6 6 6 6 7 7 8 8 9 8 9 9 9 9 9 9 9 10 10
4 3 3 3 4 3 3 3 3 2 2 3 3 4 5 6 6 6 6 6 7 7 7 7 8 8 8 8 8 9 9 10 10 11 11 11 11 11 11 11 11 12 12
3 2 3 3 2 2 2 2 2 2 2 2 3 4 4 6 7 7 7 8 8 9 8 8 9 9 10 10 10 11 11 11 12 13 13 13 13 13 13 13 13 14 14
3 3 3 3 2 1 1 1 1 2 2 3 3 4 5 5 6 7 8 8 9 9 9 10 10 10 11 12 12 12 13 13 14 14 14 14 13 14 14 15 14 15 16
5 4 3 3 2 1 1 0 1 1 2 3 4 4 5 6 6 7 8 8 9 10 10 11 11 12 12 12 13 14 14 15 15 15 15 14 15 15 16 16 15 15 16
6 5 4 3 2 1 1 0 1 1 2 3 3 4 5 6 7 7 8 9 9 10 11 12 13 13 13 14 15 15 15 16 16 16 16 15 17 17 16 17 17 18 17
6 5 4 4 3 3 1 1 1 2 2 3 4 5 6 7 8 8 8 9 10 11 12 13 14 15 15 16 16 16 16 16 16 17 17 17 16 17 17 17 17 18 18
7 5 4 3 2 2 2 2 2 3 3 4 5 6 7 8 9 9 10 10 11 12 13 14 15 16 17 17 17 17 17 16 16 16 17 17 17 17 18 18 18 19 19
6 6 4 3 3 3 3 3 4 4 5 5 6 7 8 8 9 10 10 11 12 12 13 14 15 16 16 16 16 15 16 15 16 17 18 18 18 18 19 20 20 20 20
6 6 5 4 3 3 3 4 5 6 6 7 7 8 9 10 10 11 11 12 12 13 14 14 14 14 15 16 16 16 16 16 17 18 18 19 19 20 20 21 21 21 22
5 6 5 5 4 4 4 5 6 7 7 8 8 9 9 10 11 11 12 12 12 13 14 14 14 15 15 16 16 16 16 17 17 18 19 19 20 21 22 22 23 23 24
6 6 6 6 6 6 6 7 7 8 8 9 9 10 11 11 11 11 12 12 13 13 13 14 14 15 16 16 16 16 16 17 18 18 19 21 22 23 23 24 24 25 26
6 7 7 7 7 7 7 8 9 9 10 11 11 11 12 12 12 12 13 13 13 14 14 14 15 16 16 17 16 16 16 17 18 19 20 21 22 23 24 24 24 25 26
6 7 7 7 8 8 9 9 10 10 11 12 12 12 12 13 13 13 14 14 14 14 15 16 16 17 18 18 17 17 17 17 19 19 20 21 22 22 23 23 24 25 26
7 8 8 9 9 9 10 10 11 11 12 12 13 13 13 13 13 13 14 14 15 15 16 17 17 18 18 18 18 17 18 18 19 20 20 20 21 22 23 23 24 25 25
8 9 9 10 10 10 11 11 11 12 12 13 13 13 13 13 14 14 14 15 16 16 16 17 17 18 18 18 18 18 19 20 20 20 21 21 22 22 23 23 24 24 26
9 9 10 10 11 11 11 11 12 13 13 14 14 14 14 14 14 15 15 15 16 17 17 17 18 19 19 19 19 20 20 21 21 22 22 23 23 23 23 24 24 25 26
10 10 11 11 12 12 12 12 13 14 14 14 15 15 15 15 15 15 16 17 17 17 17 18 18 19 19 19 20 20 21 22 22 23 23 23 24 24 25 25 26 26 26
11 11 12 12 13 13 13 13 14 15 15 15 15 15 15 16 16 16 16 17 16 17 17 18 18 19 19 19 20 21 22 22 23 23 24 24 24 25 25 26 27 27 27
11 12 12 13 14 14 14 15 15 15 15 16 16 16 16 16 17 17 17 17 17 17 17 18 18 19 19 19 20 21 22 22 23 24 25 25 26 26 27 27 27 27 28
13 14 14 15 15 16 16 17 17 16 17 17 17 17 17 17 18 18 17 17 17 18 18 18 19 19 20 20 21 22 23 23 24 25 25 26 26 27 27 27 28 28 28
14 15 15 16 17 17 18 18 18 18 19 19 19 19 19 19 19 19 19 19 19 19 19 19 20 20 21 22 23 23 24 24 25 25 26 26 26 27 27 27 28 28 28
15 16 16 17 18 18 19 20 20 20 20 21 21 20 21 21 21 20 20 20 20 20 20 20 21 21 22 23 24 24 25 26 26 26 26 26 26 26 27 28 28 28 28
17 17 18 19 19 19 20 21 21 22 22 23 22 22 22 22 22 21 21 21 21 21 21 22 22 23 24 24 25 25 25 26 26 26 26 26 27 27 27 28 27 27 27
18 19 19 20 20 21 21 22 23 23 23 24 24 23 22 22 22 22 22 22 22 23 23 23 24 24 25 25 26 26 26 26 27 27 27 27 27 27 26 26 26 26 27

GEFSMA_500_meanwind_228.txt.gz
Wind_Speed
5 6 6 6 6 6 5 4 4 4 3 3 3 2 1 1 1 2 2 3 3 4 4 4 4 5 5 6 6 6 6 7 7 7 8 9 8 9 9 9 9 10 10
5 5 5 5 5 5 4 4 3 3 2 2 2 2 2 2 2 3 3 4 5 5 6 6 6 7 7 7 7 7 7 8 8 9 9 10 10 10 11 11 12 11 11
4 5 5 5 4 3 3 3 2 2 1 1 2 2 2 2 3 4 5 5 6 6 7 7 8 8 8 8 8 9 9 9 9 10 10 11 12 12 13 13 14 13 13
6 5 5 4 4 3 2 2 1 1 0 1 2 3 3 3 3 5 5 6 7 7 8 8 8 9 9 9 10 10 10 11 11 12 13 13 13 14 15 15 15 15 15
7 6 5 4 3 2 2 1 1 0 1 2 2 2 3 4 5 6 6 7 7 8 8 9 9 10 10 11 11 11 12 13 13 14 14 14 14 15 15 16 16 16 16
7 6 5 5 3 2 2 1 2 2 2 2 2 3 4 4 5 6 7 8 8 8 9 9 10 11 11 12 12 12 13 13 14 15 15 15 16 16 17 16 17 17 17
6 6 5 4 4 4 3 3 3 3 3 3 4 4 5 5 6 7 8 8 9 9 9 10 11 12 12 12 13 13 13 14 15 16 16 16 16 16 16 16 16 16 16
6 6 5 4 3 3 3 3 3 3 4 4 5 5 6 7 8 9 9 10 10 11 11 11 12 13 13 13 14 15 15 16 16 16 16 16 16 17 16 16 17 17 18
6 5 5 4 3 3 3 3 3 4 5 6 6 6 7 8 9 9 10 11 11 12 12 12 13 13 13 13 14 15 16 16 16 16 17 17 17 17 18 17 18 18 17
6 5 5 4 4 3 3 4 4 5 6 6 7 7 8 8 9 9 10 11 11 12 12 13 13 13 14 14 15 16 16 16 16 16 16 17 17 17 18 18 18 18 18
6 5 5 4 4 5 5 5 6 6 7 7 8 8 9 9 9 10 10 11 11 12 12 13 13 13 15 15 15 15 15 16 16 16 17 16 16 17 17 17 18 18 18
5 5 5 5 5 5 6 7 7 8 8 8 8 9 10 10 10 11 10 11 11 12 12 13 13 13 14 15 14 15 16 15 15 16 16 15 15 16 16 17 18 19 20
6 5 5 6 6 6 7 8 8 8 8 9 9 10 11 11 11 11 11 11 12 13 14 14 14 14 14 15 15 16 16 16 15 16 16 16 16 17 17 18 19 20 21
7 7 7 7 7 8 9 9 9 9 9 10 10 11 11 12 12 12 12 13 13 14 15 16 15 15 16 16 16 16 17 16 16 16 16 16 17 17 18 19 20 21 21
8 8 8 8 9 9 10 10 10 10 10 10 10 11 12 13 13 13 13 14 15 15 16 16 16 16 17 17 17 17 17 16 16 16 17 17 18 18 19 20 21 22 23
8 9 9 9 10 10 11 11 11 11 10 10 11 12 13 13 14 14 14 15 15 16 16 16 16 16 16 17 18 17 17 17 17 17 17 18 19 19 20 21 22 23 23
9 9 9 10 10 11 11 12 12 12 11 11 12 13 13 14 14 15 15 15 15 16 16 16 16 17 17 18 18 17 17 18 18 18 19 19 19 20 21 22 23 23 23
10 10 10 11 11 12 13 13 13 12 12 13 13 13 14 15 15 15 16 16 17 17 16 16 17 18 18 19 18 18 18 19 19 19 20 20 21 22 22 23 23 24 24
11 11 11 12 12 13 14 14 14 13 14 14 14 14 15 16 16 16 17 17 17 17 18 18 18 19 19 19 19 19 19 19 20 21 22 22 22 23 23 24 24 25 25
12 12 13 14 14 14 14 14 14 14 14 14 15 15 16 16 17 17 17 17 18 18 18 19 19 19 19 19 20 20 20 21 21 21 22 22 23 24 24 25 25 26 26
13 14 14 14 14 15 15 15 15 16 16 16 16 17 17 18 18 18 18 18 19 19 19 19 19 19 20 20 20 21 21 22 23 23 23 23 23 24 24 25 25 26 26
14 15 15 15 15 16 16 16 17 17 18 18 18 18 19 19 19 19 19 20 20 21 21 21 20 20 21 21 22 22 23 23 23 23 24 23 24 24 24 24 25 26 26
15 16 15 16 16 17 18 18 19 19 20 20 20 20 20 21 21 20 21 21 22 22 22 21 21 21 22 23 24 24 24 24 25 24 24 24 24 24 25 25 26 26 26
17 17 17 17 18 19 19 20 20 21 21 21 21 21 21 21 21 21 22 22 22 22 22 22 23 24 24 25 25 25 25 25 25 25 25 25 25 26 26 26 26 26 26
19 19 19 19 20 20 21 21 22 22 22 22 22 22 22 22 22 21 22 22 21 21 22 22 24 25 25 25 26 26 27 26 26 26 26 26 26 26 26 26 26 26 26
21 21 20 21 21 21 22 22 23 23 23 23 22 22 22 22 22 22 22 22 23 23 23 23 24 25 26 26 26 27 27 27 27 27 26 26 26 26 26 25 25 26 26

GEFSMA_500_meanwind_234.txt.gz
Wind_Speed
7 7 7 6 5 5 5 5 5 5 4 4 3 3 3 3 3 2 2 2 3 2 3 3 3 4 4 4 5 5 6 6 6 6 6 7 7 8 9 9 9 10 10
7 7 7 6 5 5 5 4 3 4 3 3 3 2 2 3 3 3 3 3 3 3 4 4 5 5 6 6 7 7 7 7 7 8 8 8 9 10 10 11 11 12 12
7 7 7 6 5 4 4 3 3 3 3 2 2 3 2 2 2 3 3 3 4 4 5 5 5 6 6 7 8 8 8 9 9 9 10 10 11 11 12 12 13 14 14
8 7 6 6 4 4 3 3 2 2 2 2 2 3 3 2 3 3 3 4 4 5 5 6 6 7 7 8 8 9 9 9 10 10 11 12 12 12 13 13 14 15 15
8 7 5 5 4 3 2 2 2 1 1 1 1 2 3 3 4 4 4 5 5 6 6 7 7 8 8 9 9 9 10 10 10 11 12 12 13 14 14 14 15 16 16
7 7 5 4 3 3 2 2 1 1 1 0 1 1 2 3 4 5 5 6 6 7 8 8 9 9 9 10 10 10 11 11 11 12 12 13 14 14 14 15 15 15 16
7 6 5 4 4 3 2 2 2 1 1 1 1 2 3 4 5 6 7 7 7 7 8 9 10 10 10 11 11 11 12 12 12 13 14 15 15 15 15 15 15 15 15
5 4 5 4 4 3 3 2 2 2 2 2 2 3 3 4 4 6 7 7 8 9 9 10 10 10 11 12 12 12 13 13 14 14 15 15 15 15 15 16 16 16 17
5 4 4 4 4 3 3 3 3 3 3 3 4 4 4 5 6 7 7 7 8 9 9 10 10 10 11 11 11 11 12 12 13 14 14 15 15 15 16 16 16 16 17
5 4 4 3 3 3 3 3 4 4 4 4 4 4 4 5 6 6 7 7 8 8 9 9 10 10 10 10 11 11 12 13 14 14 15 16 16 16 16 17 17 17 17
4 4 4 3 3 3 4 4 5 5 4 4 4 5 5 5 6 6 7 8 8 9 9 9 10 10 10 10 11 12 13 14 14 15 15 16 16 17 17 17 18 18 18
4 4 4 3 3 4 4 5 6 6 6 6 5 5 6 6 7 7 8 9 9 9 10 10 11 11 11 12 12 13 13 14 15 15 15 16 16 17 17 17 18 18 18
4 4 4 4 4 4 5 5 6 6 6 6 6 6 7 7 8 9 9 9 9 10 10 11 11 12 12 13 13 14 14 14 15 16 15 15 15 16 17 17 18 19 19
5 4 4 4 4 4 5 5 6 7 7 7 7 7 7 8 9 9 10 10 10 11 11 12 12 12 12 13 14 14 15 15 16 16 16 16 16 16 16 18 18 19 19
5 5 5 5 5 6 6 6 6 7 7 7 8 8 8 9 9 10 11 11 11 11 11 12 12 12 12 13 13 14 14 15 15 15 16 16 16 17 17 18 18 19 20
5 5 6 6 7 7 7 7 7 8 8 8 8 8 9 9 10 11 11 12 12 12 12 13 13 13 13 14 14 15 15 15 15 15 16 16 17 17 17 18 20 20 21
6 6 7 7 8 8 8 8 8 9 9 9 9 9 9 10 11 12 12 13 13 13 13 13 13 14 14 15 15 16 16 16 16 15 16 17 18 18 19 19 20 21 22
7 7 7 8 8 9 9 10 9 9 10 10 10 10 10 11 12 13 13 13 13 13 13 13 14 15 15 15 15 16 17 16 17 17 17 18 19 19 20 20 21 21 22
8 8 8 8 9 9 10 11 11 11 11 11 11 11 11 12 12 13 13 14 14 14 14 14 15 15 15 15 16 17 16 17 18 19 19 19 20 20 21 21 22 22 23
9 9 9 9 10 10 11 12 12 11 12 12 12 12 13 13 14 14 14 15 15 15 15 15 16 16 17 17 17 17 17 18 18 19 20 20 20 21 21 22 22 23 23
10 10 10 10 11 12 12 13 13 13 13 13 13 14 14 15 15 16 16 16 16 16 16 17 17 17 18 18 18 18 19 20 20 20 21 20 21 21 22 23 23 23 24
12 12 12 12 12 13 13 14 14 14 14 15 15 15 16 16 17 17 18 18 18 18 18 18 18 19 18 18 19 20 20 21 22 22 22 22 23 23 23 23 23 24 24
13 14 14 14 14 14 15 15 16 16 16 16 17 17 17 18 18 19 19 18 19 19 19 20 20 19 20 20 21 21 21 22 23 23 23 23 24 24 24 24 24 24 24
15 16 16 16 16 16 16 17 17 17 17 18 18 18 18 19 19 20 20 20 20 20 20 20 21 21 21 22 23 23 23 23 24 24 24 24 24 25 25 24 24 25 25
17 18 16 17 18 18 19 18 18 19 19 19 19 19 19 20 21 21 21 21 21 21 21 21 22 22 23 23 23 24 24 24 25 25 26 25 26 26 26 25 25 25 26
19 19 18 19 19 19 20 20 20 20 20 21 21 21 22 22 22 22 22 22 22 23 23 23 23 24 24 24 24 25 25 26 26 26 26 26 26 25 26 26 25 26 26

GEFSMA_500_meanwind_240.txt.gz
Wind_Speed
7 6 5 5 6 6 5 4 4 3 2 2 1 1 1 1 1 2 2 2 2 3 3 3 3 4 4 4 4 5 5 5 6 6 6 6 7 7 8 8 8 9 10
7 7 7 7 6 5 4 4 3 3 2 1 2 2 1 1 2 3 4 4 4 5 5 5 5 5 5 6 6 6 6 6 7 7 8 8 9 9 9 9 10 11 11
8 8 7 6 5 4 4 4 4 3 2 2 1 1 2 2 2 3 4 4 5 6 6 6 6 7 7 7 7 7 8 8 9 9 9 9 10 11 11 11 12 11 12
8 7 6 5 5 4 4 4 3 2 1 1 0 1 2 3 3 4 5 5 6 7 7 7 7 7 8 8 8 9 10 10 10 10 11 11 11 12 12 12 12 13 13
7 6 5 5 4 4 4 3 2 1 1 0 1 2 3 3 4 5 6 6 7 7 8 8 8 8 9 9 10 10 10 11 11 11 11 12 12 12 13 13 13 14 15
6 6 5 4 4 3 3 2 1 1 1 2 2 3 3 4 5 5 6 7 8 8 9 9 10 11 11 11 11 11 11 11 12 12 12 13 14 14 14 15 15 15 16
5 5 4 4 3 2 2 1 1 1 2 2 3 4 4 5 5 6 7 8 8 9 10 11 11 11 12 12 12 13 12 12 11 12 13 14 15 15 16 16 16 16 17
4 3 3 3 3 3 2 2 2 2 3 4 4 4 5 5 6 6 8 8 8 9 10 11 11 11 11 12 12 13 13 12 13 13 14 15 16 16 16 17 17 17 17
4 3 3 3 3 2 2 3 3 3 3 4 5 5 5 6 6 7 7 8 9 9 9 10 11 11 11 12 13 13 14 14 14 15 16 16 16 16 17 17 18 18 18
4 4 3 3 2 2 3 4 4 4 4 5 5 5 6 6 6 7 8 8 9 9 9 9 10 11 12 12 13 13 14 14 14 15 17 17 18 17 18 18 18 18 19
4 3 3 2 2 3 4 4 5 5 5 5 5 6 6 7 7 7 8 9 9 10 10 11 11 12 12 12 13 13 14 15 15 16 17 18 18 18 18 18 18 18 19
4 3 3 3 3 3 4 5 5 6 6 7 7 7 7 8 8 9 10 10 11 11 11 12 12 12 12 12 13 14 14 16 16 17 17 18 18 19 18 18 18 19 19
3 3 3 3 4 4 5 6 6 7 7 8 8 8 8 9 10 10 11 12 12 12 12 12 13 13 13 13 14 15 16 16 16 17 18 18 19 19 19 19 19 20 20
3 3 4 4 4 5 6 7 8 8 8 9 9 9 10 10 11 12 13 13 13 13 13 13 13 13 13 14 14 15 16 16 16 17 18 18 18 19 19 19 20 21 21
4 4 5 5 6 6 7 7 8 8 8 9 10 10 10 10 11 12 12 12 13 13 13 14 14 14 14 15 15 15 16 16 17 18 19 18 18 18 19 20 20 21 22
5 5 6 7 7 7 8 9 9 8 8 9 10 10 11 11 11 12 12 13 13 14 14 14 14 14 15 15 15 15 16 17 17 18 19 18 18 19 20 20 20 21 22
6 6 6 7 8 8 8 9 9 10 10 10 11 11 11 12 12 12 13 13 14 14 14 14 14 15 15 16 16 16 17 17 18 18 18 19 19 20 21 21 21 22 22
6 7 7 8 9 9 9 10 10 10 11 11 12 12 12 13 13 13 14 14 15 14 14 14 15 16 16 17 17 18 18 19 19 19 19 20 21 21 22 22 22 22 22
7 7 8 9 10 10 11 11 11 11 11 11 12 12 13 13 13 14 15 15 15 15 15 16 16 16 17 18 18 19 19 20 20 20 20 21 21 21 22 22 22 23 23
8 9 9 10 10 11 12 12 12 12 12 13 13 14 14 14 14 15 15 16 16 16 16 17 17 17 18 19 19 19 20 21 21 21 22 22 22 22 22 22 22 23 23
10 10 11 11 12 13 13 13 13 14 14 15 15 15 15 15 16 16 17 17 17 17 18 18 19 19 19 20 20 20 21 21 22 22 23 23 23 23 23 23 23 23 24
12 13 13 14 14 14 15 15 16 15 16 16 16 16 17 18 18 18 19 18 18 19 19 19 20 20 21 21 21 21 22 22 23 23 24 24 24 24 24 25 25 25 26
15 15 16 16 16 16 16 16 17 17 17 17 17 18 19 19 20 20 20 20 20 20 20 21 21 22 22 23 23 23 23 24 24 24 24 25 25 26 26 26 26 27 27
17 17 17 17 17 17 18 18 18 18 18 19 19 19 20 20 20 21 21 21 21 21 22 22 22 23 23 23 24 24 25 26 26 26 26 26 27 28 28 28 28 28 28
19 19 20 20 20 20 20 20 20 20 20 20 21 21 22 22 23 23 23 23 23 23 23 23 23 24 24 25 25 25 26 27 27 27 27 28 28 28 29 29 29 29 29
21 21 21 22 22 22 23 23 22 22 22 23 23 23 24 24 25 25 24 24 24 25 25 25 25 25 26 26 26 26 27 28 28 28 28 29 29 30 30 29 29 29 29

GEFSMA_500_meanwind_246.txt.gz
Wind_Speed
9 9 9 9 9 8 7 6 6 5 4 3 3 2 2 1 2 3 3 3 4 4 5 4 5 5 4 5 6 6 7 7 6 6 7 6 6 7 7 8 8 9 9
8 8 9 8 9 8 7 7 5 5 3 3 2 2 1 1 2 2 3 4 5 5 6 6 6 6 6 7 7 8 8 8 9 9 7 7 8 8 9 9 9 9 10
8 9 8 8 8 8 7 6 5 4 3 3 2 2 1 2 3 4 4 4 5 5 7 7 7 8 8 8 9 9 9 9 10 9 9 9 9 10 11 11 11 11 12
8 8 7 7 7 6 6 5 4 3 3 2 1 1 1 2 3 4 5 5 5 5 6 7 7 8 9 9 9 9 9 9 10 9 9 10 11 11 11 12 12 12 13
7 6 6 6 6 5 4 3 3 2 2 1 1 1 2 3 3 4 5 5 6 6 7 8 8 9 10 10 10 10 10 10 10 11 11 11 11 12 12 12 13 13 14
6 6 5 5 4 4 3 2 2 1 1 0 1 2 3 4 4 5 5 5 6 7 7 8 9 10 11 11 11 11 11 12 12 13 12 12 13 13 13 14 14 14 14
5 5 4 4 4 3 3 2 1 1 1 1 2 3 4 4 5 5 5 6 6 6 7 8 9 10 11 12 12 12 12 13 13 14 14 14 14 14 15 15 15 16 15
4 4 3 3 3 2 2 1 1 1 1 2 2 3 4 5 5 5 6 7 7 7 8 8 9 9 10 11 11 12 12 13 13 13 14 14 15 15 15 16 16 16 16
2 2 2 2 2 1 1 1 1 1 2 3 3 4 4 5 6 7 7 8 8 8 8 9 9 10 11 11 12 12 13 13 13 14 15 15 15 15 15 16 16 17 17
2 2 3 2 1 1 1 2 3 3 3 3 4 4 5 6 6 7 8 8 8 9 9 10 11 11 12 12 12 12 12 12 13 14 14 15 15 15 16 16 16 16 18
2 2 2 1 0 1 2 3 3 4 4 4 4 5 5 6 7 8 8 9 9 9 10 11 12 12 12 12 13 13 13 13 13 13 14 15 16 16 16 16 16 16 17
1 1 0 1 2 2 3 3 4 4 5 5 6 6 7 7 8 9 9 10 10 11 11 12 12 13 13 13 13 14 13 13 14 14 14 14 15 16 16 16 17 18 19
1 1 1 2 2 3 3 4 5 6 6 6 7 8 8 8 9 9 10 11 12 12 13 13 13 13 13 13 13 13 13 13 14 14 15 15 16 16 16 16 17 17 18
2 2 3 3 4 4 4 5 6 7 7 7 8 8 9 9 10 10 11 12 13 13 13 13 13 13 13 13 13 13 13 14 14 14 15 16 16 16 16 17 17 17 18
3 3 4 4 5 6 6 6 7 7 8 8 9 9 10 10 11 11 11 12 12 13 13 13 13 12 12 12 12 13 14 14 15 15 16 17 17 16 17 18 18 19 20
3 3 4 5 5 6 6 6 7 7 8 8 9 9 10 10 11 12 12 12 13 13 13 13 13 13 13 13 13 14 14 15 16 17 17 17 17 17 17 17 18 19 20
2 3 5 5 6 6 7 7 8 8 9 9 10 10 10 11 12 12 13 13 13 13 13 14 14 14 14 15 15 15 16 16 16 16 17 18 17 17 18 18 19 19 19
5 5 6 7 7 8 8 9 9 9 10 10 11 11 11 12 12 13 14 14 14 14 14 14 14 15 15 16 16 16 17 17 17 18 18 18 17 18 18 18 19 20 20
7 7 7 8 9 9 10 10 11 11 12 12 12 12 12 12 13 14 15 15 15 15 15 15 15 16 17 17 18 18 19 19 19 19 20 19 19 19 19 20 20 20 21
9 9 10 10 11 11 12 12 13 13 13 14 13 14 14 14 14 15 16 16 16 16 16 16 16 17 18 18 19 19 20 20 20 21 21 20 21 21 21 21 21 22 22
12 12 12 13 13 13 13 14 15 15 15 15 15 15 16 16 16 17 17 17 17 17 18 18 18 19 19 20 20 21 21 21 21 22 21 22 22 22 22 23 23 23 24
14 14 14 15 15 16 16 16 16 17 17 17 17 17 17 18 18 19 19 19 19 19 19 20 20 20 21 21 21 21 22 22 22 23 23 23 23 24 24 24 25 25 25
17 17 17 17 18 17 18 18 19 19 18 18 19 19 19 20 20 21 21 20 20 20 21 21 21 21 22 22 23 23 22 23 23 24 24 24 25 25 25 26 26 26 26
19 19 19 19 19 19 19 19 20 20 20 20 20 21 21 21 21 22 21 21 21 21 21 22 22 22 22 23 23 23 23 24 24 24 25 25 26 27 27 27 27 28 28
20 20 21 21 21 21 21 21 22 22 22 22 22 22 22 23 23 23 23 23 23 24 24 24 24 24 24 25 25 25 25 26 26 26 26 27 27 27 28 28 29 29 28
21 22 22 22 22 23 24 24 25 24 24 24 24 24 24 23 24 24 25 25 25 25 25 26 26 26 26 26 26 26 26 27 28 28 28 28 29 29 29 29 29 29 29

GEFSMA_500_meanwind_252.txt.gz
Wind_Speed
5 6 6 6 6 6 6 5 4 4 3 2 1 1 0 0 1 2 2 2 2 3 3 4 5 5 5 5 5 5 5 5 5 5 5 6 7 7 7 7 7 7 7
6 5 6 6 6 6 5 5 4 4 3 2 1 1 1 1 2 2 3 3 3 4 5 5 5 5 6 6 6 6 6 6 6 6 6 7 8 8 9 9 9 9 9
5 6 6 6 6 5 5 4 4 4 3 2 1 1 1 2 3 3 4 4 4 5 5 5 6 6 7 7 7 7 7 7 7 7 8 9 9 10 10 9 9 9 10
5 5 5 5 5 4 4 3 3 3 2 0 1 2 2 3 3 4 5 5 5 6 6 6 6 7 7 7 7 8 8 8 8 9 9 9 10 10 9 10 10 10 11
4 4 4 4 4 3 3 2 2 2 1 1 1 2 2 3 4 4 5 5 5 6 6 7 7 7 8 8 8 8 8 9 9 9 9 10 10 10 10 10 11 11 12
4 4 3 2 2 2 2 2 1 1 1 2 2 3 3 3 4 4 5 5 5 5 6 7 7 7 7 8 8 9 9 9 9 9 9 10 10 11 11 12 13 13 12
4 2 2 2 2 3 2 1 1 1 2 2 3 3 4 4 4 4 5 6 7 7 7 7 7 8 8 8 9 9 9 10 10 11 11 12 12 12 12 12 13 14 14
4 3 2 2 3 3 2 2 2 3 3 3 4 4 5 5 5 5 6 7 8 7 8 8 8 8 9 9 10 10 9 10 10 11 12 13 13 13 14 14 14 14 14
4 3 3 2 2 3 3 4 4 4 4 4 5 5 6 5 6 6 6 7 8 8 8 9 9 9 9 9 10 10 10 11 11 12 13 13 12 12 13 14 14 14 15
4 3 3 2 3 3 4 5 5 6 6 6 6 6 6 6 6 7 7 8 9 9 10 10 10 10 9 10 11 11 11 11 11 12 13 13 13 13 13 14 15 15 15
4 3 3 4 4 4 5 5 6 6 7 7 7 7 7 7 8 8 9 9 10 10 11 11 10 10 11 11 11 11 11 11 12 12 13 13 14 14 14 15 15 15 15
4 4 4 5 5 6 6 7 7 7 7 7 8 8 8 9 9 10 10 11 11 12 12 11 12 12 11 12 12 12 12 12 12 13 13 13 14 14 14 14 15 15 15
6 6 6 6 6 7 8 8 8 8 8 9 9 9 10 10 11 11 12 12 13 13 12 12 13 12 12 12 12 13 13 13 13 14 14 14 14 15 14 15 15 15 15
7 7 7 7 7 8 9 9 9 9 10 10 10 11 11 11 12 12 13 13 13 13 13 13 14 13 12 12 13 13 13 14 13 14 14 14 14 15 15 15 15 16 16
7 7 7 8 8 9 10 10 10 10 11 11 11 11 12 12 12 13 14 14 13 13 13 13 14 13 13 13 14 14 15 15 15 14 14 14 15 15 16 16 16 16 17
8 8 8 8 9 9 9 9 10 10 10 11 11 11 12 12 12 13 14 14 14 13 14 14 14 13 13 14 14 15 15 15 15 15 15 16 16 16 17 17 17 17 18
8 9 8 8 9 9 9 10 10 10 11 11 11 12 12 13 13 14 14 14 15 15 15 15 15 15 15 15 15 16 16 16 16 16 16 16 16 16 16 17 17 18 18
10 10 9 9 9 10 10 10 10 11 12 12 12 13 13 14 15 15 15 16 16 15 15 16 16 16 16 16 17 18 18 18 18 17 17 17 18 18 19 19 19 19 20
10 10 10 10 10 11 11 12 11 11 13 13 14 14 14 15 15 16 17 17 17 17 17 17 17 17 18 18 19 19 19 20 19 19 18 19 19 20 20 20 21 20 20
11 11 11 12 12 12 12 13 13 13 14 14 15 16 16 16 17 17 18 19 19 19 19 19 19 19 19 20 21 21 21 21 20 21 21 21 21 21 21 21 21 21 22
12 12 12 12 13 13 14 14 14 15 16 16 17 18 18 19 18 18 18 19 21 21 21 21 21 21 21 21 22 22 22 22 22 22 22 22 22 22 22 22 23 23 23
13 14 14 14 14 15 15 16 16 17 17 18 19 19 19 20 20 20 21 21 21 22 22 22 22 22 22 22 23 23 23 24 24 24 24 24 24 23 23 23 24 24 24
16 15 16 15 15 15 16 17 18 18 19 19 20 21 21 21 21 22 22 23 22 23 23 23 24 24 24 24 24 24 24 25 26 25 25 25 25 25 25 25 26 26 26
18 17 17 17 17 17 17 18 19 20 21 21 22 22 23 23 23 23 24 24 24 24 25 25 24 24 25 25 26 26 26 26 26 25 26 26 26 26 26 26 27 27 27
19 19 19 19 19 19 20 20 21 22 23 24 24 24 24 24 24 25 25 25 26 26 26 27 26 26 26 26 26 27 26 27 27 27 27 27 27 27 27 28 28 28 27
21 21 21 21 21 22 22 23 24 25 25 25 26 25 25 26 26 26 26 27 27 27 28 28 28 27 27 27 27 27 27 27 27 27 28 28 28 28 27 28 28 28 28

GEFSMA_500_meanwind_258.txt.gz
Wind_Speed
6 7 6 6 6 5 5 4 4 3 3 2 2 1 1 1 0 1 1 1 1 1 1 1 2 3 3 3 3 4 4 4 4 5 5 6 6 6 6 6 7 8 8
7 6 6 6 6 5 4 4 4 3 3 3 2 1 1 1 1 1 2 2 3 2 2 2 2 3 4 4 4 4 4 5 5 6 6 6 7 7 7 7 8 9 9
7 6 6 6 6 5 4 4 3 3 2 2 2 1 2 1 2 2 2 3 2 2 3 3 3 4 4 4 4 4 5 5 6 7 7 7 7 7 8 8 9 9 10
7 7 6 5 5 4 4 4 3 3 2 2 1 2 2 2 2 2 3 3 3 3 4 4 3 4 4 5 5 5 5 5 6 7 8 8 9 9 9 9 9 9 10
7 7 6 5 4 3 3 3 2 2 1 1 2 2 2 3 3 3 3 3 3 4 4 4 4 5 6 5 6 6 6 7 7 8 8 9 10 10 10 10 10 10 10
6 6 6 5 4 3 3 3 2 1 1 1 2 3 3 3 3 4 4 4 5 5 5 5 5 6 6 6 7 7 7 8 9 9 10 10 10 11 11 11 12 12 12
5 5 5 3 3 3 2 1 1 1 2 2 3 4 3 4 4 4 4 5 5 5 5 5 6 7 7 6 6 7 8 9 9 10 10 11 11 12 12 12 13 13 13
5 4 3 3 3 3 2 2 1 2 3 3 4 4 4 4 4 4 5 5 5 5 5 6 7 8 7 7 7 8 8 9 10 11 11 12 12 12 13 14 14 14 14
5 4 3 3 3 3 2 2 2 3 3 3 3 3 4 4 5 5 5 5 5 5 6 7 7 8 8 8 8 8 9 9 10 11 11 12 12 13 13 13 14 15 15
4 4 3 2 2 2 2 2 2 3 3 3 3 3 4 4 5 5 5 5 6 6 7 7 8 8 8 9 9 10 10 10 11 11 11 11 12 12 13 13 14 15 15
3 3 3 3 2 2 2 2 2 3 3 4 4 4 4 5 5 5 6 6 7 8 8 8 9 9 10 10 10 11 11 11 11 11 12 12 13 13 14 14 14 15 15
3 3 3 3 2 2 2 3 3 3 3 4 4 5 5 5 5 6 7 8 9 9 9 9 10 10 10 11 11 11 12 12 12 12 12 13 13 13 14 14 15 15 16
3 3 3 3 2 2 3 3 4 4 4 5 5 5 5 6 7 7 8 9 9 9 10 10 10 10 10 11 12 12 12 13 12 12 12 12 12 12 13 13 14 15 16
3 3 2 3 3 3 3 4 4 4 5 5 5 5 6 7 8 8 8 9 9 9 10 10 11 11 11 11 12 12 12 13 13 13 13 13 13 14 13 14 14 15 15
3 3 3 3 3 4 4 4 4 5 5 5 6 6 6 7 8 8 9 10 10 10 10 11 11 12 12 12 12 12 13 13 14 13 14 14 14 14 14 15 15 16 16
3 3 3 3 4 4 5 5 5 5 5 5 5 6 7 7 8 9 10 10 11 11 11 12 12 12 12 13 13 13 14 14 14 14 14 14 14 14 15 15 15 16 16
3 3 3 4 5 5 5 5 5 5 5 6 6 7 7 8 9 10 10 11 11 12 12 13 14 14 14 14 14 14 15 15 15 15 15 16 16 17 17 18 18 18 18
3 3 4 5 5 5 5 5 5 5 6 7 7 8 9 10 10 11 12 12 13 13 13 14 14 15 15 15 15 16 16 17 17 17 17 17 18 18 19 20 20 20 19
4 5 5 5 6 6 6 6 7 7 8 8 9 9 10 11 12 12 13 14 14 15 15 15 15 16 16 16 17 17 18 18 18 18 19 19 20 20 21 21 21 21 20
6 6 7 7 7 8 8 8 9 9 10 10 11 12 13 13 14 15 15 15 15 16 16 17 17 17 17 18 18 18 18 19 19 19 20 20 21 21 21 21 22 22 22
9 8 9 9 9 9 10 11 11 11 12 12 13 14 15 15 16 16 16 17 17 18 18 19 19 19 18 18 19 19 19 19 20 20 21 21 22 23 23 23 23 23 23
11 11 11 11 11 11 12 12 13 13 13 14 15 16 17 17 17 18 18 18 19 19 20 20 20 20 20 20 20 20 20 20 21 21 22 23 23 24 24 24 24 24 25
14 13 13 13 13 14 14 14 14 14 15 16 17 17 18 19 19 19 19 20 21 21 21 21 22 22 21 21 22 22 21 22 23 23 24 24 24 24 24 24 25 26 26
16 16 16 16 16 16 16 16 16 17 17 18 18 19 20 20 21 21 21 22 22 23 23 23 23 23 23 23 23 23 23 23 24 25 25 25 25 25 25 26 26 26 26
17 17 18 18 18 19 19 19 18 18 19 19 20 21 22 22 22 23 23 23 24 24 24 24 24 23 23 23 24 24 24 24 24 25 25 25 25 26 26 27 27 26 26
20 19 20 20 21 21 21 21 21 21 21 21 22 23 23 24 24 24 23 24 24 24 24 24 23 24 24 25 25 25 25 25 25 25 26 26 26 26 26 27 27 26 26

GEFSMA_500_meanwind_264.txt.gz
Wind_Speed
7 6 5 5 5 5 5 4 4 3 2 2 1 0 0 1 1 1 2 2 4 4 4 5 4 4 4 5 5 6 6 6 6 6 7 7 7 7 7 7 8 8 8
6 6 5 4 4 5 4 4 3 3 2 1 1 0 0 1 1 2 2 3 3 5 5 5 4 5 5 5 6 6 6 6 6 7 7 8 8 8 8 8 9 9 9
5 5 4 4 4 4 4 3 3 2 1 1 1 0 1 2 2 2 3 4 4 5 5 6 6 5 5 6 6 6 6 7 7 8 8 8 8 9 9 9 10 10 11
4 3 3 4 4 3 2 2 2 1 1 1 1 1 2 3 3 3 5 5 5 6 6 6 6 6 6 6 6 7 7 8 8 8 8 8 9 10 11 11 11 11 11
4 3 3 3 3 2 2 2 2 2 2 2 2 3 3 4 4 5 6 6 6 6 7 7 6 6 7 7 7 8 9 9 9 10 10 11 11 12 12 12 13 13 14
4 3 3 2 2 1 1 1 2 2 2 2 3 3 3 3 4 5 6 6 7 7 7 7 7 7 7 8 9 9 10 11 11 11 11 12 13 13 14 14 14 15 15
3 3 3 2 1 1 1 1 1 2 2 2 2 3 3 4 4 5 5 6 6 6 7 8 9 8 8 9 9 10 11 11 12 13 13 14 14 14 15 15 15 16 16
3 3 3 2 1 1 1 1 1 1 2 3 3 3 4 4 4 5 5 5 6 6 7 7 8 9 9 10 10 10 11 12 13 14 15 15 15 15 16 16 16 17 17
1 1 1 1 1 2 2 2 2 2 3 3 4 4 4 5 5 5 6 6 7 7 8 8 8 8 9 10 10 11 12 12 13 14 15 15 16 16 16 17 17 17 17
0 1 0 0 1 2 2 3 3 3 3 3 4 4 5 5 5 6 6 7 7 8 8 8 9 9 9 10 11 11 12 13 14 14 15 16 16 16 16 16 17 17 18
1 1 1 1 1 2 2 2 3 3 3 3 3 4 4 5 6 6 7 7 8 8 9 9 10 10 11 11 12 12 13 13 14 14 15 15 16 17 17 17 17 17 18
2 2 2 1 1 2 2 2 2 3 4 4 4 4 5 6 7 8 8 8 9 9 9 10 11 11 11 12 12 13 13 14 14 15 15 15 15 16 17 17 18 18 18
3 3 2 2 2 2 3 3 3 3 4 5 5 6 7 7 7 8 8 9 10 10 10 11 11 12 11 12 12 13 14 14 14 15 15 15 15 16 17 17 17 17 18
3 3 2 2 2 3 3 3 4 4 5 6 7 7 7 8 8 9 9 9 10 11 11 11 12 12 12 12 12 12 13 13 14 15 15 15 16 16 17 17 17 18 18
3 3 3 2 3 3 4 4 5 6 7 7 8 8 8 9 9 10 10 11 11 11 12 12 13 13 13 13 13 13 14 14 14 15 15 16 16 17 17 17 18 18 18
4 3 3 3 3 4 4 5 6 6 6 7 8 9 9 10 10 11 11 11 12 13 13 14 14 14 15 15 15 15 15 16 16 16 16 17 17 17 18 18 18 19 19
4 4 4 5 5 5 6 6 7 7 7 8 8 9 9 10 11 11 12 13 13 14 14 14 14 15 15 15 15 16 16 16 16 17 17 18 18 19 18 18 19 19 20
5 5 5 6 6 6 6 7 8 8 8 9 9 10 10 11 12 12 13 14 14 15 15 16 16 16 16 16 17 17 18 18 18 18 19 19 19 19 19 19 20 21 21
7 7 7 6 6 6 7 8 9 10 10 11 11 12 12 13 13 14 14 14 15 16 16 17 17 17 17 18 18 18 18 19 20 20 20 21 21 21 21 21 22 23 23
9 9 8 8 8 8 9 9 10 11 12 13 13 13 13 14 14 15 15 16 16 17 17 18 18 18 19 19 20 20 20 20 21 22 22 22 23 23 23 23 24 24 24
11 10 10 10 10 10 11 11 12 13 13 14 15 15 15 15 16 16 16 17 18 18 18 19 19 19 20 20 21 21 22 22 22 23 23 24 24 25 25 25 25 25 25
12 12 12 12 12 12 13 14 14 15 15 15 16 17 17 17 18 18 19 19 19 20 20 20 20 20 21 21 22 23 23 23 24 24 24 24 25 25 25 25 25 25 25
14 14 14 14 14 15 15 16 16 17 17 18 18 19 19 19 20 20 20 20 21 21 22 22 22 22 22 23 23 23 24 23 24 24 24 24 24 24 24 25 25 25 25
14 14 15 15 16 16 17 17 18 19 19 20 20 21 22 21 22 23 23 23 23 23 23 23 23 23 23 23 23 24 24 25 25 26 26 25 25 25 26 26 26 26 25
14 15 16 17 18 18 18 19 20 21 21 22 22 23 23 24 24 24 25 25 24 24 24 24 24 25 25 25 25 26 26 27 27 27 27 27 27 26 27 28 27 27 26
15 17 18 19 19 19 20 21 21 22 23 23 24 25 25 25 26 26 26 26 26 26 26 26 27 27 28 28 28 28 28 29 29 29 29 29 28 28 29 29 29 28 28